Flag for Switzerland Weather past 2 weeks in Ilanz, Graubünden, Switzerland

Now
57 °F

Refreshingly cool.


Feels Like: 56 °F
Forecast: 36 / 50 °F
Wind: 6 mph from Southwest

Location: Chur-Ems

Current Time: Apr 28, 2015 at 1:17:57 AM

Latest Report: Apr 28, 2015 at 12:00 AM


Visibility: N/A

Pressure: 29.56 "Hg

Humidity: 54%

Dew point: 40 °F

Location of IlanzLocation

Historic Weather in Ilanz — Graph

°F

Ilanz temperature yesterday

Maximum temperature yesterday: 74 °F (at 4:00 PM)
Minimum temperature yesterday: 53 °F (at 6:00 AM)
Average temperature yesterday: 63 °F

Past Weeks' High & Low Weather Summary

 TemperatureHumidityPressure
High77 °F (Apr 15, 4:00 PM)92% (Apr 17, 10:00 PM)30.51 "Hg (Apr 17, 10:00 PM)
Low37 °F (Apr 19, 4:00 AM)15% (Apr 15, 2:00 PM)29.41 "Hg (Apr 27, 4:00 PM)
Average56 °F52%30.07 "Hg
* Reported Apr 12 10:00 PM — Apr 27 10:00 PM, Ilanz, Weather by CustomWeather, © 2015

Note: Actual official high and low records may vary slightly from our data, if they occured in-between our weather recording intervals... More about our weather records

Advertising

Ilanz weather history for previous 24 hours

 ConditionsComfort  
Time TempWeatherWind HumidityBarometerVisibility
10:00 PM
Mon, Apr 27
61 °FRefreshingly cool.15 mph45%29.50 "HgN/A
9:00 PM61 °FRefreshingly cool.8 mph45%29.50 "HgN/A
8:00 PM64 °FOvercast.9 mph39%29.47 "Hg16 mi
7:00 PM65 °FMild.12 mph37%29.44 "HgN/A
6:00 PM67 °FMild.10 mph35%29.44 "HgN/A
5:00 PM69 °FOvercast.9 mph34%29.41 "Hg11 mi
4:00 PM74 °FMild.9 mph33%29.41 "HgN/A
3:00 PM71 °FMild.9 mph35%29.44 "HgN/A
2:00 PM71 °FPartly sunny.12 mph38%29.47 "Hg12 mi
1:00 PM67 °FMild.12 mph39%29.50 "HgN/A
12:00 PM66 °FMild.9 mph41%29.50 "HgN/A
11:00 AM64 °FOvercast.12 mph42%29.54 "Hg12 mi
10:00 AM66 °FMild.12 mph40%29.54 "HgN/A
9:00 AM62 °FRefreshingly cool.10 mph47%29.57 "HgN/A
8:00 AM55 °FPartly sunny.2 mph58%29.62 "Hg12 mi
7:00 AM56 °FRefreshingly cool.9 mph53%29.62 "HgN/A
6:00 AM53 °FCool.6 mph60%29.63 "HgN/A
5:00 AM56 °FOvercast.13 mph53%29.64 "Hg10 mi
4:00 AM58 °FRefreshingly cool.10 mph50%29.66 "HgN/A
3:00 AM58 °FRefreshingly cool.13 mph51%29.67 "HgN/A
2:00 AM57 °FOvercast.8 mph52%29.69 "Hg10 mi
1:00 AM58 °FRefreshingly cool.13 mph51%29.70 "HgN/A
Weather by CustomWeather, © 2015

See weather overviewHow to use our weather pages